Weather History for Springfield, VT

Change the Weather History Date:

Thursday, November 8, 2012

  Actual Average Record
Temperature  
Mean Temperature 38 °F 40 °F  
Max Temperature 40 °F 49 °F 66 °F (1996)
Min Temperature 35 °F 31 °F 19 °F (2002)
Degree Days  
Heating Degree Days 27 25  
Month to date heating degree days 213 191  
Since 1 July heating degree days 791 1000  
Cooling Degree Days 0 0  
Month to date cooling degree days 0  
Year to date cooling degree days 345  
Moisture  
Dew Point 22 °F    
Average Humidity 54    
Maximum Humidity 64    
Minimum Humidity 44    
Precipitation  
Precipitation T in 0.15 in 1.29 in (2006)
Month to date precipitation 0.02 1.12  
Year to date precipitation 30.17 37.67  
Sea Level Pressure  
Sea Level Pressure 29.86 in    
Wind  
Wind Speed 10 mph (North)    
Max Wind Speed 20 mph    
Max Gust Speed 32 mph    
Visibility 10 miles    
Events Snow    
T = Trace of Precipitation, MM = Missing Value Source: NWS Daily Summary

Daily Weather History Graph

Daily Weather History Graph

Search for Another Location

Airport:

Trip Planner

Search our weather history database for the weather conditions in past years. The results will help you decide how hot, cold, wet, or windy it might be!

Date:

Astronomy

Nov. 08, 2012 Rise Set
Actual Time 6:34 AM EST 4:32 PM EST
Civil Twilight 6:04 AM EST 5:02 PM EST
Nautical Twilight 5:30 AM EST 5:36 PM EST
Astronomical Twilight 4:57 AM EST 6:10 PM EST
Moon 12:17 AM EST (11/8) 1:20 PM EST (11/8)
Length of Visible Light 10h 57m
Length of Day
9h 57m
Waning Crescent, 33% of the Moon is Illuminated
Nov 8
Waning Crescent
Nov 13
New
Nov 20
First Quarter
Nov 28
Full
Dec 6
Last Quarter

Hourly Weather History & Observations

Time (EST) Temp. Windchill Dew Point Humidity Pressure Visibility Wind Dir Wind Speed Gust Speed Precip Events Conditions
12:54 AM 36.0 °F 31.1 °F 15.1 °F 43% 29.90 in 10.0 mi Variable 5.8 mph 18.4 mph N/A   Overcast
2:54 AM 36.0 °F 30.3 °F 15.1 °F 43% 29.88 in 10.0 mi Variable 6.9 mph 17.3 mph N/A   Overcast
3:54 AM 35.1 °F 27.9 °F 16.0 °F 46% 29.87 in 10.0 mi NNE 9.2 mph 16.1 mph N/A   Overcast
4:54 AM 35.1 °F 27.4 °F 17.1 °F 48% 29.86 in 10.0 mi NNE 10.4 mph 17.3 mph N/A   Overcast
5:54 AM 35.1 °F 26.4 °F 16.0 °F 46% 29.86 in 10.0 mi North 12.7 mph 19.6 mph N/A   Overcast
6:54 AM 35.1 °F 26.9 °F 17.1 °F 48% 29.86 in 10.0 mi NNE 11.5 mph 18.4 mph N/A   Scattered Clouds
7:54 AM 36.0 °F 28.0 °F 19.0 °F 50% 29.86 in 10.0 mi NNE 11.5 mph 20.7 mph N/A   Mostly Cloudy
8:54 AM 37.0 °F 28.5 °F 19.9 °F 50% 29.86 in 10.0 mi North 13.8 mph 20.7 mph N/A   Overcast
9:54 AM 37.0 °F 29.8 °F 21.0 °F 52% 29.85 in 10.0 mi North 10.4 mph 24.2 mph N/A   Overcast
10:54 AM 39.0 °F 30.6 °F 21.9 °F 50% 29.84 in 10.0 mi North 15.0 mph 27.6 mph N/A   Overcast
11:54 AM 39.0 °F 33.4 °F 23.0 °F 53% 29.81 in 10.0 mi NNW 8.1 mph 24.2 mph N/A   Overcast
12:54 PM 39.9 °F 32.1 °F 23.0 °F 51% 29.80 in 10.0 mi North 13.8 mph 24.2 mph N/A   Overcast
1:54 PM 39.0 °F 32.3 °F 24.1 °F 55% 29.81 in 10.0 mi North 10.4 mph 23.0 mph N/A   Overcast
2:30 PM 39.2 °F 33.0 °F 24.8 °F 56% 29.80 in 10.0 mi North 9.2 mph 26.5 mph N/A   Overcast
2:54 PM 39.0 °F 32.8 °F 24.1 °F 55% 29.82 in 10.0 mi NNW 9.2 mph 17.3 mph N/A   Overcast
3:02 PM 39.2 °F 33.6 °F 24.8 °F 56% 29.81 in 10.0 mi NNW 8.1 mph - N/A   Overcast
3:54 PM 39.0 °F 31.8 °F 24.1 °F 55% 29.84 in 10.0 mi NNW 11.5 mph 21.9 mph N/A   Overcast
4:54 PM 37.9 °F 29.6 °F 25.0 °F 60% 29.85 in 10.0 mi North 13.8 mph 26.5 mph 0.00 in   Overcast
5:54 PM 39.0 °F 32.3 °F 25.0 °F 57% 29.87 in 10.0 mi North 10.4 mph 25.3 mph N/A   Overcast
6:54 PM 39.0 °F 30.6 °F 24.1 °F 55% 29.88 in 10.0 mi North 15.0 mph 25.3 mph N/A   Overcast
7:54 PM 37.9 °F 31.5 °F 27.0 °F 65% 29.89 in 9.0 mi NNW 9.2 mph - 0.00 in Snow Light Snow
8:54 PM 39.0 °F 31.4 °F 26.1 °F 60% 29.89 in 10.0 mi NNW 12.7 mph 17.3 mph 0.00 in   Overcast
9:54 PM 37.9 °F 32.7 °F 27.0 °F 65% 29.89 in 10.0 mi Variable 6.9 mph - N/A   Overcast
10:22 PM 37.4 °F 34.9 °F 26.6 °F 65% 29.87 in 10.0 mi Variable 3.5 mph - N/A   Overcast
10:54 PM 39.0 °F 32.8 °F 26.1 °F 60% 29.89 in 10.0 mi NNW 9.2 mph 18.4 mph N/A   Overcast
11:13 PM 39.2 °F 33.6 °F 24.8 °F 56% 29.87 in 10.0 mi North 8.1 mph - N/A   Overcast
11:54 PM 39.0 °F 35.7 °F 24.1 °F 55% 29.89 in 10.0 mi Variable 4.6 mph 19.6 mph N/A   Overcast